Theta_e
294 289 286 289 291 291 290 288 287 289 292 290 290 289 292 293 291 291 292 293 294 295 298 300 304 309 317 321 327 329 329 329 329 328 329 329 328 329 328 328 326 322 321 319
289 286 291 294 293 291 289 287 286 290 292 290 287 289 291 292 292 293 294 294 295 295 298 298 298 304 312 318 322 327 329 329 328 328 328 328 328 329 329 328 327 326 322 319
287 290 295 293 291 289 288 287 286 287 290 290 287 285 288 292 294 295 296 297 296 297 297 298 298 301 306 312 317 321 326 329 329 328 327 323 325 325 326 326 327 326 325 321
288 292 292 289 289 290 285 291 290 289 284 280 285 278 285 289 290 291 295 295 295 295 295 297 297 297 299 305 309 316 320 324 329 329 326 325 323 322 324 326 327 327 326 323
288 289 288 289 290 292 288 291 290 288 285 282 282 280 284 286 287 291 292 292 293 293 295 296 296 298 299 299 299 300 302 308 317 327 327 325 323 324 322 322 325 326 326 327
289 292 291 291 291 291 292 289 288 286 284 278 282 282 281 285 289 289 290 291 292 293 294 296 298 299 300 302 303 303 301 300 302 307 322 324 323 324 323 322 323 324 325 325
286 287 289 292 289 290 289 285 277 276 276 276 282 280 284 288 291 290 291 291 291 294 295 296 297 299 300 301 304 305 303 300 299 299 308 321 323 324 322 322 322 322 321 319
283 280 287 290 289 287 287 285 280 274 275 277 280 277 284 290 291 290 291 291 292 294 296 295 298 299 301 301 303 305 305 301 299 299 304 310 317 319 319 322 322 322 321 321
283 282 289 290 292 292 286 283 288 280 273 276 279 282 288 289 290 288 289 292 293 294 295 296 297 299 299 302 303 304 305 305 306 307 308 310 312 314 315 316 320 319 317 313
287 282 288 289 291 291 288 291 282 281 272 271 276 277 282 285 288 289 289 289 291 293 294 295 296 297 299 300 303 304 305 304 304 305 306 307 309 311 313 315 314 313 309 308
289 287 284 288 286 285 286 285 286 285 282 276 273 277 284 288 289 289 289 289 290 293 294 295 295 296 298 298 301 302 304 304 303 303 302 303 303 306 309 309 309 308 306 307
290 288 281 284 288 290 290 287 288 282 278 278 279 281 288 289 290 290 289 290 290 293 293 294 295 295 296 297 298 300 301 304 305 305 304 303 303 305 306 306 306 306 305 304
291 285 277 281 284 287 285 287 288 286 282 278 275 281 288 287 288 290 291 292 293 293 293 294 294 294 295 296 297 298 299 301 306 306 306 306 306 306 305 303 302 301 299 298
295 285 282 280 281 285 283 285 288 286 280 281 279 285 285 288 288 290 291 293 293 293 293 293 293 294 295 295 296 296 297 299 301 305 304 302 301 301 300 299 297 295 294 293
292 282 284 284 285 285 283 283 285 285 286 282 285 284 288 287 289 289 291 292 293 293 292 293 293 293 294 294 295 295 296 297 297 296 295 294 295 294 293 291 290 289 289 288
290 280 283 278 284 284 281 284 286 287 287 286 287 284 292 290 290 288 292 293 293 293 293 293 294 294 294 294 293 294 294 294 294 293 291 290 289 287 287 287 287 287 287 287
287 281 275 275 283 281 275 284 285 285 288 287 284 289 289 288 289 289 291 293 294 294 294 294 295 295 294 293 293 292 292 291 290 287 286 286 286 286 286 286 286 286 286 285
282 281 277 272 275 273 284 288 289 287 288 289 289 290 289 291 291 291 291 293 294 294 294 294 294 294 294 292 292 291 290 287 285 285 285 285 286 285 285 285 285 284 283 283
289 284 279 277 266 279 285 285 284 284 285 291 290 292 292 290 289 290 291 294 296 297 296 295 296 295 292 291 290 288 285 285 284 284 284 285 284 284 283 282 282 280 281 281
287 288 285 269 272 271 279 286 290 288 283 289 291 292 292 289 287 292 294 293 296 295 294 293 292 290 289 288 287 286 285 284 283 283 283 282 282 282 282 281 282 281 282 281
280 280 282 276 275 276 284 286 290 280 282 286 289 290 289 288 292 291 292 291 290 290 289 289 289 289 288 286 286 284 283 282 282 282 281 280 281 281 282 282 280 281 280 278
284 283 281 280 279 277 286 286 287 287 285 288 287 288 288 288 289 288 288 288 288 287 285 285 285 284 283 284 284 282 281 281 281 280 279 279 281 281 281 282 280 278 275 275
284 285 282 284 283 285 284 284 286 288 286 287 288 288 289 287 286 286 286 285 285 284 283 283 283 282 281 282 283 280 279 279 278 277 277 279 280 280 279 276 275 277 274 273
284 283 282 284 285 284 287 285 286 287 286 286 286 286 287 286 286 285 284 284 283 282 281 280 280 280 278 276 278 278 277 277 276 278 278 278 275 274 277 278 276 273 270 269
284 285 280 280 282 284 285 288 288 286 285 285 284 285 285 285 284 284 283 282 282 281 278 278 278 277 274 274 272 272 272 272 276 277 274 272 275 272 271 272 271 272 270 272
284 285 283 281 285 286 285 288 287 287 286 286 285 283 284 284 284 283 282 281 280 278 276 276 274 274 271 270 268 266 265 273 275 274 273 272 274 272 271 270 269 280 280 282
Wind_Speed
4 6 8 9 8 6 5 3 5 1 1 5 8 6 10 8 5 8 9 8 9 10 10 10 10 10 8 10 15 17 16 15 12 10 9 8 9 6 4 6 9 9 8 7
5 6 10 10 7 6 3 2 4 3 2 4 3 10 10 8 8 9 10 10 11 7 7 8 9 9 10 11 12 15 16 15 14 11 9 8 8 7 6 4 7 10 9 8
8 8 9 11 7 7 5 5 4 5 3 1 2 8 7 9 7 9 10 11 8 11 11 9 9 11 9 10 10 10 14 16 15 13 8 3 3 2 5 5 5 4 10 10
6 4 14 6 6 7 6 6 5 7 4 3 4 7 6 6 10 8 15 12 12 10 6 6 8 7 8 7 5 6 8 10 14 14 11 14 11 9 6 6 6 6 7 8
8 9 11 8 12 8 6 5 8 3 4 3 2 1 9 3 6 11 10 11 12 9 9 7 7 7 5 5 4 2 2 4 5 11 14 12 9 7 4 5 9 8 7 9
3 1 5 7 4 6 6 8 9 6 5 3 8 8 8 6 8 6 5 9 7 6 6 6 4 5 4 2 1 1 2 4 2 4 7 12 12 11 9 7 7 6 6 7
2 2 1 5 8 5 7 8 4 2 1 7 3 3 11 5 7 7 7 6 6 6 7 6 6 3 2 3 0 1 2 5 5 5 5 8 11 12 11 8 6 7 5 3
9 5 7 5 8 11 10 8 8 10 6 5 3 8 7 10 6 2 5 7 6 6 5 5 5 5 3 2 1 1 3 3 4 4 4 3 5 3 4 7 4 6 6 7
7 3 2 4 4 12 6 7 6 7 3 4 6 6 9 7 7 4 6 6 7 6 5 6 4 4 4 4 2 3 4 5 6 4 4 4 5 6 5 4 4 4 4 4
5 4 2 2 3 1 8 8 2 4 4 4 5 5 7 4 10 7 8 10 7 5 7 6 6 6 3 4 4 4 5 5 3 4 4 4 4 4 5 5 5 5 5 4
4 5 2 5 7 10 5 5 4 6 7 6 1 8 8 11 9 10 11 8 10 10 10 9 7 6 6 4 5 4 4 5 4 4 3 5 4 4 6 5 4 4 5 5
3 5 5 9 4 5 7 8 14 7 5 2 4 12 1 6 5 9 9 9 8 7 7 7 7 7 5 4 4 5 4 4 4 3 4 5 5 6 6 5 5 5 5 5
8 2 4 5 7 2 6 4 4 4 5 8 7 18 1 4 6 4 8 7 4 5 7 7 6 6 6 7 6 6 6 5 5 5 5 5 5 5 6 6 6 6 6 5
18 6 13 17 4 9 8 8 11 5 4 12 10 28 5 6 7 5 4 7 8 8 8 6 6 7 7 6 6 6 5 5 5 5 5 6 6 6 6 5 6 7 6 6
14 10 6 3 6 5 6 11 12 18 22 12 28 18 25 9 9 8 8 7 8 9 9 9 8 7 7 7 7 6 5 5 5 6 6 6 6 6 6 6 6 6 7 6
3 2 5 2 4 5 1 9 21 25 26 16 21 12 24 8 8 6 9 10 11 11 9 9 9 9 9 8 7 7 6 6 6 6 7 6 6 6 6 6 6 6 6 6
10 8 5 6 7 6 6 32 10 12 21 20 22 33 4 5 8 10 12 12 13 13 13 13 13 12 9 9 9 8 7 6 7 7 6 7 6 6 6 7 6 6 6 5
9 8 4 4 5 6 18 2 19 19 15 20 18 20 7 15 11 11 10 11 12 10 11 11 11 10 10 8 8 8 7 7 7 7 6 6 6 7 6 7 6 4 4 4
5 7 4 7 5 9 24 6 8 10 24 18 24 24 16 7 3 12 8 11 17 16 11 10 10 10 7 11 10 10 7 7 7 7 7 7 7 8 6 7 5 3 4 2
4 4 8 4 8 13 5 8 13 7 24 14 23 24 22 8 13 14 9 5 6 8 8 10 10 8 11 9 11 12 10 9 8 7 5 5 6 6 6 5 5 2 2 3
4 3 16 6 6 11 9 3 7 10 8 2 3 8 9 11 15 3 6 4 4 4 7 9 10 11 10 9 10 9 8 7 6 7 6 6 6 6 6 5 2 3 3 4
13 12 9 4 10 18 5 3 20 5 1 4 2 1 3 3 5 3 4 6 7 10 8 7 10 8 6 8 11 10 8 6 7 7 7 6 5 5 4 5 3 3 4 4
8 8 8 13 10 3 2 2 2 3 5 4 5 4 8 7 4 7 5 5 6 8 8 7 11 10 6 7 9 12 9 9 8 7 7 6 6 5 4 5 4 3 4 4
3 2 5 4 6 5 6 3 2 3 5 2 2 3 6 8 8 5 6 5 5 5 6 5 11 10 7 4 6 6 6 5 6 7 6 5 5 4 4 3 3 4 3 3
3 7 6 2 2 4 4 4 5 5 6 5 3 2 3 8 8 7 7 6 6 6 4 5 8 8 7 6 7 5 6 4 6 7 5 5 4 4 3 2 3 3 2 4
2 2 4 3 2 3 3 3 3 5 4 5 5 2 1 3 7 6 6 6 5 6 5 7 6 9 7 7 7 5 3 7 8 8 5 4 4 4 3 2 3 8 9 6
Wind_Direction
195 128 167 191 184 203 153 183 188 113 164 141 217 248 250 259 251 243 241 242 251 235 229 216 208 191 193 177 178 184 184 188 182 191 189 198 207 204 202 191 186 182 189 190
70 193 200 177 199 204 239 178 196 114 171 159 193 260 252 235 225 214 221 230 226 231 243 225 213 193 183 190 184 184 185 181 187 187 192 198 199 215 210 186 196 194 183 187
164 219 178 174 177 174 198 175 204 154 162 310 29 291 257 256 222 210 227 230 226 216 229 229 207 199 190 193 190 183 183 180 187 188 180 162 152 161 195 208 207 191 197 193
188 221 172 168 180 137 183 206 137 131 105 200 144 277 280 248 255 209 229 230 233 225 224 231 201 192 189 198 172 183 180 174 185 180 183 189 198 198 202 200 206 207 185 191
226 161 160 170 196 157 200 159 136 144 116 84 271 43 269 301 271 258 229 229 235 228 205 192 163 132 104 118 135 137 181 181 178 184 187 187 199 197 168 173 193 196 205 199
194 203 133 147 90 126 147 81 45 41 65 294 218 174 267 211 219 262 230 245 236 165 119 122 114 124 135 129 102 259 229 256 222 176 186 189 193 186 187 187 187 192 199 205
131 120 146 134 90 24 97 89 43 16 291 222 310 221 246 257 240 211 220 193 170 148 141 155 157 140 119 118 108 240 221 261 264 250 213 188 195 196 197 184 180 182 187 184
165 198 179 179 152 169 170 167 161 184 198 237 338 237 240 239 247 185 151 159 150 160 171 160 152 149 152 155 139 251 221 242 256 245 238 222 218 205 221 173 173 188 190 195
137 237 97 137 129 151 209 217 170 104 20 69 222 283 299 250 243 132 127 136 169 175 158 165 158 157 162 154 135 89 83 75 67 80 114 107 166 170 175 169 154 161 154 153
173 114 356 159 103 326 175 148 202 356 129 253 272 259 228 256 241 208 208 209 199 176 167 170 170 164 158 143 143 121 112 98 83 78 79 79 77 106 109 88 119 130 119 129
141 107 253 136 219 165 136 176 189 139 161 186 238 258 221 210 208 215 227 195 196 188 187 181 179 175 167 158 155 136 123 116 107 109 119 114 105 96 87 102 112 115 117 127
166 108 157 200 266 228 213 188 180 170 211 206 149 253 166 177 192 189 208 210 205 191 180 175 174 170 155 158 141 144 144 149 139 131 116 110 102 96 102 105 97 98 95 89
164 188 97 12 340 286 212 181 213 111 75 209 139 260 282 207 134 162 171 179 152 154 157 173 172 178 171 182 166 157 160 153 154 133 125 110 105 104 105 105 98 97 96 86
160 163 193 206 190 133 181 179 202 149 170 218 231 260 167 212 194 193 163 180 184 184 182 174 176 190 190 184 170 161 160 165 160 135 127 119 112 105 100 93 86 84 86 93
159 203 192 123 101 137 179 174 186 206 225 190 242 243 253 194 215 216 204 181 192 203 202 199 188 183 183 175 167 158 153 146 132 124 116 104 97 95 93 91 91 92 88 88
197 255 123 64 184 99 75 221 208 210 226 227 247 255 256 189 199 205 199 193 203 209 200 192 190 180 186 173 164 158 158 147 134 126 114 104 94 96 103 97 96 96 93 87
154 129 95 234 124 92 333 230 186 218 226 213 228 237 153 213 205 213 216 202 206 206 200 195 194 183 177 171 163 164 152 138 128 116 115 109 113 105 101 101 92 87 85 84
139 122 113 151 81 190 252 145 207 209 224 223 249 256 224 234 240 222 211 196 211 207 200 199 183 177 175 159 146 135 139 140 123 117 121 128 128 115 104 96 99 97 84 92
132 128 129 146 196 295 276 186 150 169 243 211 221 243 243 211 229 254 198 200 207 207 202 189 174 158 150 152 140 132 128 125 120 135 142 144 129 122 121 114 123 114 111 116
53 148 166 122 173 213 270 223 165 109 262 191 210 231 236 146 229 245 204 196 169 175 165 154 145 130 137 139 140 138 143 138 137 150 130 113 101 113 108 112 112 104 104 87
149 127 203 182 223 275 221 133 121 161 237 154 154 222 219 201 233 154 132 105 102 107 123 120 132 146 140 132 129 130 131 137 135 125 129 111 113 119 120 122 105 108 89 81
171 167 195 182 215 255 157 49 177 201 78 136 132 168 157 124 105 92 97 125 126 120 109 103 111 107 107 122 125 126 133 142 132 128 120 117 121 110 108 114 110 100 98 81
195 194 170 187 208 204 191 103 110 140 154 182 156 157 139 134 144 140 139 137 132 127 124 114 125 121 121 134 145 144 158 147 141 136 138 132 112 105 104 118 106 93 80 90
233 149 173 101 208 168 157 90 89 92 107 61 81 153 146 134 140 138 139 148 133 128 137 124 134 138 131 110 108 116 138 140 136 125 113 95 90 81 78 86 97 100 109 105
166 142 164 285 65 97 116 103 143 112 113 103 51 357 132 136 150 155 156 163 153 143 123 136 138 133 124 109 98 83 94 102 111 111 114 117 116 131 128 104 140 139 189 142
172 173 182 200 161 105 161 151 151 143 161 158 141 102 77 133 153 144 166 160 161 158 149 135 124 130 133 126 122 125 130 147 146 137 138 142 152 122 111 120 73 52 65 79